Location: Shepherdstown, WV
(39.4326°N, 77.8042°W)
Time: 20:00:41
(UTC-04:00)

STARLINK-2756 - Pass Details

Date: 19 June 2021
Orbit: 348 x 351 km, 53.0° (Epoch: 26 July)

Event Time Altitude Azimuth Distance (km) Brightness Sun altitude
Exits shadow 04:59:39 - 180° (S) 2,004 6.1 -7.8°
Reaches altitude 10° 05:02:29 10° 143° (SE) 1,307 5.5 -7.4°
Maximum altitude 05:03:16 11° 127° (SE) 1,264 5.7 -7.3°
Drops below altitude 10° 05:04:04 10° 111° (ESE) 1,310 6.0 -7.2°
Sets 05:07:19 0° 71° (ENE) 2,159 8.3 -6.7°
